Location: ????????
(48.4751°N, 37.6926°E)
Time: 20:48:09
(UTC+00:00)

CZ-4 R/B - Pass Details

Date: 20 January 2021
Orbit: 531 x 599 km, 97.7° (Epoch: 02 March)

Event Time Altitude Azimuth Distance (km) Brightness Sun altitude
Rises 14:40:49 0° 121° (ESE) 2,799 4.6 -5.5°
Reaches altitude 10° 14:43:38 10° 101° (E) 1,891 3.6 -5.9°
Maximum altitude 14:46:11 16° 62° (ENE) 1,512 2.9 -6.3°
Drops below altitude 10° 14:48:44 10° 22° (NNE) 1,874 3.6 -6.7°
Sets 14:51:30 0° 2° (N) 2,761 4.6 -7.1°
